This is the latest recevied weather packets stored in our database for station/object WD9U. If no packets are shown the sender has not sent any weather packets the latest 10 day(s).
| Time | Temp. | Humidity | Pressure | Rain* | Wind** | Luminosity | Snow |
|---|---|---|---|---|---|---|---|
| 1777678994 | 11.11° C | 32% | 1019.3 hPa | 0 mm | - | 218 W/m² | - |
| 1777678633 | 10.56° C | 33% | 1019.3 hPa | 0 mm | - | 222 W/m² | - |
| 1777678273 | 10.56° C | 31% | 1019.4 hPa | 0 mm | - | 237 W/m² | - |
| 1777677912 | 10.56° C | 32% | 1019.5 hPa | 0 mm | - | 253 W/m² | - |
| 1777677553 | 10.56° C | 33% | 1019.5 hPa | 0 mm | - | 269 W/m² | - |
| 1777677193 | 10.56° C | 30% | 1019.4 hPa | 0 mm | - | 288 W/m² | - |
| 1777676832 | 11.11° C | 31% | 1019.5 hPa | 0 mm | - | 304 W/m² | - |
| 1777676714 | 11.11° C | 33% | 1019.5 hPa | 0 mm | - | 310 W/m² | - |
| 1777676470 | 10.56° C | 33% | 1019.4 hPa | 0 mm | - | 322 W/m² | - |
| 1777676110 | 10° C | 33% | 1019.5 hPa | 0 mm | - | 330 W/m² | - |
| 1777675750 | 9.44° C | 33% | 1019.5 hPa | 0 mm | - | 358 W/m² | - |
| 1777675513 | 9.44° C | 33% | 1019.5 hPa | 0 mm | - | 371 W/m² | - |
| 1777675390 | 8.89° C | 33% | 1019.5 hPa | 0 mm | - | 377 W/m² | - |
| 1777675029 | 8.89° C | 33% | 1019.6 hPa | 0 mm | - | 394 W/m² | - |
| 1777674670 | 9.44° C | 32% | 1019.5 hPa | 0 mm | - | 408 W/m² | - |
| 1777674310 | 7.22° C | 33% | 1020.2 hPa | 0 mm | - | 425 W/m² | - |
| 1777673950 | 9.44° C | 33% | 1019.5 hPa | 0 mm | - | 442 W/m² | - |
| 1777673589 | 10° C | 33% | 1019.5 hPa | 0 mm | - | 458 W/m² | - |
| 1777673229 | 9.44° C | 33% | 1019.7 hPa | 0 mm | - | 474 W/m² | - |
| 1777673112 | 9.44° C | 33% | 1019.7 hPa | 0 mm | - | 480 W/m² | - |
| 1777672869 | 9.44° C | 33% | 1019.5 hPa | 0 mm | - | 491 W/m² | - |
| 1777672509 | 9.44° C | 33% | 1019.5 hPa | 0 mm | - | 508 W/m² | - |
| 1777672149 | 8.89° C | 33% | 1023.9 hPa | 0 mm | - | 526 W/m² | - |
| 1777671912 | 9.44° C | 33% | 1019.5 hPa | 0 mm | - | 536 W/m² | - |
| 1777671789 | 9.44° C | 33% | 1019.6 hPa | 0 mm | - | 541 W/m² | - |
* Rain latest hour (hover to see other rain measurements)
** Current wind speed in m/s (hover to see current wind gust speed)